Location: Lango�lan
(48.1202°N, 3.2340°W)
Time: 00:38:53
(UTC+00:00)

Cosmos 1190 Rocket - Pass Details

Date: 23 October 2019
Orbit: 758 x 779 km, 74.1° (Epoch: 16 November)

Event Time Altitude Azimuth Distance (km) Brightness Sun altitude
Exits shadow 04:29:55 58° 262° (W) 906 4.0 -22.9°
Maximum altitude 04:30:32 62° 296° (WNW) 869 4.0 -22.8°
Drops below altitude 10° 04:35:47 10° 17° (NNE) 2,326 6.8 -22.0°
Sets 04:38:12 0° 21° (NNE) 3,253 7.6 -21.6°
